Вернуться в каталог

THORAD AGENA D DEB

АктивенLEO
NORAD 4736·DEBRIS·🇺🇸 United States

Запущен Apr 8, 1970 с Vandenberg Space Force Base

Loading…

Ближайшие Пролёты (ближайшие 24 часа)

TLE

СвежийSource: Space-Track

Эпоха: Sep 14, 2026, 01:39 UTC

1 04736U 70025CK  26257.06896857  .00000637  00000-0  42987-3 0  9994
2 04736 100.0585 290.4144 0083018 335.7568  23.9699 14.03218718859096

Отслеживайте THORAD AGENA D DEB в реальном времени с AllMySat

Download on the App Store